STARLINK-4023

operational
NORAD ID: 53135 Int'l Des: 2022-083 Owner: SPXS Country: US Constellation: starlink
LEOCIRCULAR

About STARLINK-4023

Description loading...

Live Position

Loading 3D Globe...

Upcoming Passes

Altitude History

Altitude vs Time

uPlot chart will show altitude changes over time

Two-Line Element Set

1 53135U 22083D 25251.32311341 -.00000134 00000-0 96465-5 0 9999
2 53135 53.2173 272.7987 0001336 87.6634 272.4512 15.08837384174674
Epoch: Sep 8, 2025 • Age: 19 hours

Current Status

Altitude 544.9 km
Velocity 7.60 km/s
Sub-Earth Point 50.69°N, 61.45°W
Launch Date Jul 17, 2022
Age 3.1 years
Type internet

Technical Details

Classification Payload
Mass 297.00 kg
Dry Mass 275.00 kg
Total Mass 297.00 kg
Length 0.20 m
Diameter 2.80 m
Span 9.00 m
Shape Box + pan
Manufacturer SPXS
Bus Type Starlink
Phase Status In Orbit
Owner/State SPXS/US

Large Constellations

Loading constellations...